Location: ????????
(48.4751°N, 37.6926°E)
Time: 13:02:58
(UTC+00:00)

H-2A R/B - Pass Details

Date: 20 January 2021
Orbit: 734 x 836 km, 98.2° (Epoch: 26 February)

Event Time Altitude Azimuth Distance (km) Brightness Sun altitude
Rises 16:29:23 0° 175° (S) 3,167 5.2 -22.8°
Reaches altitude 10° 16:31:40 10° 179° (S) 2,257 4.5 -23.2°
Maximum altitude 16:36:34 60° 259° (W) 871 2.5 -24.0°
Drops below altitude 10° 16:41:38 10° 340° (NNW) 2,331 4.7 -24.8°
Sets 16:44:02 0° 344° (NNW) 3,279 5.4 -25.2°
